Latest Coastal Weather Observations for Dunalley

IDT60701

Issued at 4:15 pm EDT Thursday 23 October 2014 (issued every 10 minutes, with the page automatically refreshed every 10 minutes)

About coastal observations | Map of coastal stations | Coastal observations for TAS | Marine services | Other Formats
Station Details ID: 094254 Name: DUNALLEY (STROUD POINT) Lat: -42.90 Lon: 147.79 Height: 12.43 m
Data from the previous 72 hours. | See also: Recent months at Dunalley
Date/Time
EDT
Temp

°C
Wind Pressure Rain
since 9am
mm
Weather Cloud Vis
km
Sea
Height
m
Swell
Dir
 
Speed
knots
Gust
knots
hPa Trend Height
m
Period
s
Dir
23/04:00pm 14.3 ENE 13 18 1025.2 - 0.0 - - - - - - -
23/03:30pm 14.0 NE 15 19 1025.1 - 0.0 - - - - - - -
23/03:00pm 14.8 NE 13 20 1025.1 - 0.0 - - - - - - -
23/02:30pm 15.0 NE 13 16 1025.5 - 0.0 - - - - - - -
23/02:00pm 15.1 NNE 11 15 1025.5 - 0.0 - - - - - - -
23/01:30pm 14.7 SSW 5 8 1025.6 - 0.0 - - - - - - -
23/01:00pm 13.7 SW 5 6 1025.6 - 0.0 - - - - - - -
23/12:30pm 13.7 SSW 5 7 1025.9 - 0.0 - - - - - - -
23/12:00pm 13.4 SSW 6 8 1026.2 - 0.0 - - - - - - -
23/11:30am 13.0 S 6 7 1026.3 - 0.0 - - - - - - -
23/11:00am 13.0 S 6 8 1026.5 - 0.0 - - - - - - -
23/10:30am 13.0 S 5 8 1026.5 - 0.0 - - - - - - -
23/10:00am 12.5 SSE 7 9 1026.4 - 0.0 - - - - - - -
23/09:30am 12.3 SSE 8 11 1026.4 - 0.0 - - - - - - -
23/09:00am 11.7 SSW 7 11 1026.2 - 0.0 - - - - - - -
23/08:30am 11.7 SSW 9 13 1025.8 - 0.0 - - - - - - -
23/08:00am 12.1 SSW 10 13 1025.6 - 0.0 - - - - - - -
23/07:30am 11.4 S 12 15 1025.0 - 0.0 - - - - - - -
23/07:00am 11.4 S 12 17 1024.3 - 0.0 - - - - - - -
23/06:30am 11.3 S 10 13 1023.9 - 0.0 - - - - - - -
23/06:00am 11.4 SSW 10 14 1023.4 - 0.0 - - - - - - -
23/05:30am 11.4 S 13 18 1022.8 - 0.0 - - - - - - -
23/05:00am 11.4 S 13 17 1022.6 - 0.0 - - - - - - -
23/04:30am 11.5 S 15 19 1022.2 - 0.0 - - - - - - -
23/04:00am 11.7 SSW 18 25 1022.0 - 0.0 - - - - - - -
23/03:30am 11.9 SSW 16 20 1021.8 - 0.0 - - - - - - -
23/03:00am 11.8 SSW 19 23 1021.7 - 0.0 - - - - - - -
23/02:30am 11.6 SSW 16 20 1021.8 - 0.0 - - - - - - -
23/02:00am 12.1 SSW 20 25 1021.2 - 0.0 - - - - - - -
23/01:30am 12.3 SSW 18 24 1021.3 - 0.0 - - - - - - -
23/01:00am 12.8 SSW 19 25 1020.9 - 0.0 - - - - - - -
23/12:30am 13.3 SSW 19 25 1020.5 - 0.0 - - - - - - -
23/12:00am 13.6 S 18 22 1020.1 - 0.0 - - - - - - -
 
Date/Time
EDT
Temp

°C
Wind Pressure Rain
since 9am
mm
Weather Cloud Vis
km
Sea
Height
m
Swell
Dir
 
Speed
knots
Gust
knots
hPa Trend Height
m
Period
s
Dir
22/11:30pm 13.7 SSW 20 25 1019.4 - 0.0 - - - - - - -
22/11:00pm 13.7 SSW 20 25 1019.3 - 0.0 - - - - - - -
22/10:30pm 13.9 S 16 21 1019.0 - 0.0 - - - - - - -
22/10:00pm 13.9 S 18 22 1018.7 - 0.0 - - - - - - -
22/09:30pm 14.2 S 9 15 1018.4 - 0.0 - - - - - - -
22/09:00pm 14.1 SSE 10 13 1017.9 - 0.0 - - - - - - -
22/08:30pm 14.3 SSE 13 16 1017.4 - 0.0 - - - - - - -
22/08:00pm 14.7 SSE 18 24 1016.4 - 0.0 - - - - - - -
22/07:30pm 15.3 S 19 23 1015.5 - 0.0 - - - - - - -
22/07:19pm 15.8 S 19 22 1015.4 - 0.0 - - - - - - -
22/07:00pm 16.9 NE 5 10 1014.8 - 0.0 - - - - - - -
22/06:30pm 17.0 NE 8 10 1013.7 - 0.0 - - - - - - -
22/06:00pm 17.1 NE 6 8 1014.3 - 0.0 - - - - - - -
22/05:30pm 17.9 NE 9 14 1013.7 - 0.0 - - - - - - -
22/05:00pm 17.9 NE 14 16 1013.3 - 0.0 - - - - - - -
22/04:30pm 18.0 NE 12 15 1013.8 - 0.0 - - - - - - -
22/04:00pm 19.4 NE 11 13 1014.0 - 0.0 - - - - - - -
22/03:30pm 19.8 ENE 12 14 1013.9 - 0.0 - - - - - - -
22/03:00pm 19.6 NE 14 18 1013.9 - 0.0 - - - - - - -
22/02:30pm 20.8 NE 14 17 1014.0 - 0.0 - - - - - - -
22/02:00pm 20.4 NE 15 18 1014.4 - 0.0 - - - - - - -
22/01:30pm 19.7 NE 15 18 1014.9 - 0.0 - - - - - - -
22/01:00pm 18.8 ENE 14 17 1015.4 - 0.0 - - - - - - -
22/12:30pm 18.5 NE 14 17 1015.8 - 0.0 - - - - - - -
22/12:00pm 18.1 NE 15 18 1016.5 - 0.0 - - - - - - -
22/11:30am 17.4 ENE 15 17 1017.1 - 0.0 - - - - - - -
22/11:00am 16.8 ENE 13 15 1017.7 - 0.0 - - - - - - -
22/10:30am 16.2 ENE 10 12 1018.3 - 0.0 - - - - - - -
22/10:00am 14.5 ENE 11 14 1018.7 - 0.0 - - - - - - -
22/09:30am 15.2 NE 11 14 1019.0 - 0.0 - - - - - - -
22/09:00am 15.7 NE 11 13 1019.2 - 0.0 - - - - - - -
22/08:30am 14.9 NNE 7 11 1019.8 - 0.0 - - - - - - -
22/08:00am 13.0 NNE 11 14 1020.0 - 0.0 - - - - - - -
22/07:30am 13.0 NNE 11 15 1020.2 - 0.0 - - - - - - -
22/07:00am 12.3 NE 11 17 1020.5 - 0.0 - - - - - - -
22/06:30am 11.7 NE 13 19 1020.8 - 0.0 - - - - - - -
22/06:00am 11.1 NNE 11 14 1021.1 - 0.0 - - - - - - -
22/05:30am 11.2 NE 14 18 1021.1 - 0.0 - - - - - - -
22/05:00am 10.9 ENE 11 14 1021.6 - 0.0 - - - - - - -
22/04:30am 10.9 ENE 12 15 1021.9 - 0.0 - - - - - - -
22/04:00am 11.2 NE 8 12 1022.5 - 0.0 - - - - - - -
22/03:30am 10.8 NE 9 12 1022.8 - 0.0 - - - - - - -
22/03:00am 10.9 NE 7 9 1023.3 - 0.0 - - - - - - -
22/02:30am 11.4 NNE 1 4 1024.0 - 0.0 - - - - - - -
22/02:00am 11.9 NNE 8 13 1024.1 - 0.0 - - - - - - -
22/01:30am 12.3 NE 9 17 1024.5 - 0.0 - - - - - - -
22/01:00am 12.2 NE 10 15 1024.8 - 0.0 - - - - - - -
22/12:30am 11.7 ENE 8 10 1025.2 - 0.0 - - - - - - -
22/12:00am 11.8 NE 10 12 1025.8 - 0.0 - - - - - - -
 
Date/Time
EDT
Temp

°C
Wind Pressure Rain
since 9am
mm
Weather Cloud Vis
km
Sea
Height
m
Swell
Dir
 
Speed
knots
Gust
knots
hPa Trend Height
m
Period
s
Dir
21/11:30pm 11.9 NE 12 14 1026.0 - 0.0 - - - - - - -
21/11:00pm 12.1 NE 11 15 1026.1 - 0.0 - - - - - - -
21/10:30pm 12.3 NE 10 14 1026.6 - 0.0 - - - - - - -
21/10:00pm 12.9 NE 15 20 1027.0 - 0.0 - - - - - - -
21/09:30pm 12.9 NE 17 22 1027.2 - 0.0 - - - - - - -
21/09:00pm 13.1 NE 18 24 1027.1 - 0.0 - - - - - - -
21/08:30pm 13.2 NE 19 24 1027.2 - 0.0 - - - - - - -
21/08:00pm 13.4 NE 22 26 1027.2 - 0.0 - - - - - - -
21/07:30pm 13.7 NE 21 26 1027.3 - 0.0 - - - - - - -
21/07:00pm 13.8 ENE 21 27 1027.2 - 0.0 - - - - - - -
21/06:30pm 13.9 ENE 23 27 1027.5 - 0.0 - - - - - - -
21/06:00pm 14.4 ENE 23 27 1027.6 - 0.0 - - - - - - -
21/05:30pm 14.8 NE 24 29 1027.9 - 0.0 - - - - - - -
21/05:00pm 15.2 NE 24 29 1027.9 - 0.0 - - - - - - -
21/04:30pm 15.2 NE 23 29 1028.4 - 0.0 - - - - - - -
21/04:00pm 15.8 NE 22 28 1028.9 - 0.0 - - - - - - -
21/03:30pm 16.1 NE 23 27 1029.2 - 0.0 - - - - - - -
21/03:00pm 15.9 NE 22 26 1029.7 - 0.0 - - - - - - -
21/02:30pm 16.1 ENE 20 23 1030.2 - 0.0 - - - - - - -
21/02:00pm 15.6 NE 22 24 1030.7 - 0.0 - - - - - - -
21/01:30pm 15.3 NE 20 24 1031.2 - 0.0 - - - - - - -
21/01:00pm 15.5 NE 20 24 1031.6 - 0.0 - - - - - - -
21/12:30pm 15.1 NE 19 25 1031.9 - 0.0 - - - - - - -
21/12:00pm 15.1 NE 20 24 1032.2 - 0.0 - - - - - - -
21/11:30am 14.7 NE 18 21 1032.5 - 0.0 - - - - - - -
21/11:00am 14.8 ENE 15 19 1033.1 - 0.0 - - - - - - -
21/10:30am 14.7 ENE 11 13 1033.5 - 0.0 - - - - - - -
21/10:00am 14.3 NNE 7 11 1033.7 - 0.0 - - - - - - -
21/09:30am 13.5 NNE 5 9 1033.9 - 0.0 - - - - - - -
21/09:00am 12.5 E 7 10 1034.0 - 0.0 - - - - - - -
21/08:30am 11.6 ESE 4 9 1034.1 - 0.0 - - - - - - -
21/08:00am 10.7 ESE 2 5 1034.1 - 0.0 - - - - - - -
21/07:30am 10.1 ESE 6 10 1033.9 - 0.0 - - - - - - -
21/07:00am 9.4 SE 7 9 1033.8 - 0.0 - - - - - - -
21/06:30am 8.1 SE 5 6 1033.8 - 0.0 - - - - - - -
21/06:00am 8.3 SE 5 6 1033.5 - 0.0 - - - - - - -
21/05:30am 7.9 SE 3 5 1033.4 - 0.0 - - - - - - -
21/05:00am 8.1 SE 3 5 1033.3 - 0.0 - - - - - - -
21/04:30am 8.2 SE 6 9 1033.0 - 0.0 - - - - - - -
21/04:00am 7.7 SE 6 7 1033.2 - 0.0 - - - - - - -
21/03:30am 8.0 SE 5 7 1033.3 - 0.0 - - - - - - -
21/03:00am 7.6 SE 3 6 1033.4 - 0.0 - - - - - - -
21/02:30am 7.5 SE 2 3 1033.6 - 0.0 - - - - - - -
21/02:00am 7.6 SE 3 4 1033.7 - 0.0 - - - - - - -
21/01:30am 7.6 SE 4 5 1033.9 - 0.0 - - - - - - -
21/01:00am 7.9 SE 4 5 1034.4 - 0.0 - - - - - - -
21/12:30am 9.5 SE 6 8 1034.7 - 0.0 - - - - - - -
21/12:00am 9.4 SE 3 4 1034.9 - 0.0 - - - - - - -
 
Date/Time
EDT
Temp

°C
Wind Pressure Rain
since 9am
mm
Weather Cloud Vis
km
Sea
Height
m
Swell
Dir
 
Speed
knots
Gust
knots
hPa Trend Height
m
Period
s
Dir
20/11:30pm 9.4 SE 2 3 1035.3 - 0.0 - - - - - - -
20/11:00pm 9.6 SE 2 3 1035.5 - 0.0 - - - - - - -
20/10:30pm 10.0 CALM 0 0 1035.8 - 0.0 - - - - - - -
20/10:00pm 10.0 SE 2 3 1035.7 - 0.0 - - - - - - -
20/09:30pm 10.0 SE 3 5 1035.6 - 0.0 - - - - - - -
20/09:00pm 10.2 SE 6 8 1035.5 - 0.0 - - - - - - -
20/08:30pm 10.4 SE 8 10 1035.2 - 0.0 - - - - - - -
20/08:00pm 10.6 SSE 8 11 1034.9 - 0.0 - - - - - - -
20/07:30pm 10.8 SSE 7 9 1034.6 - 0.0 - - - - - - -
20/07:00pm 11.5 SSE 7 10 1034.3 - 0.0 - - - - - - -
20/06:30pm 11.7 SSE 6 9 1034.0 - 0.0 - - - - - - -
20/06:00pm 12.5 SSE 6 8 1033.7 - 0.0 - - - - - - -
20/05:30pm 12.7 SSE 6 8 1033.6 - 0.0 - - - - - - -
20/05:00pm 13.1 S 8 11 1033.6 - 0.0 - - - - - - -
20/04:30pm 12.9 S 6 8 1033.5 - 0.0 - - - - - - -

Other Formats:

Comma delimited format used in spreadsheet applications
http://www.bom.gov.au/fwo/IDT60701/IDT60701.94951.axf

JavaScript Object Notation format (JSON) in row-major order
http://www.bom.gov.au/fwo/IDT60701/IDT60701.94951.json